Weather History for Concordia, KS

Change the Weather History Date:

Sunday, February 17, 2013

  Actual Average Record
Temperature  
Mean Temperature 43 °F 33 °F  
Max Temperature 67 °F 44 °F 79 °F (1970)
Min Temperature 19 °F 23 °F -11 °F (1903)
Degree Days  
Heating Degree Days 22 32  
Month to date heating degree days 486 575  
Since 1 July heating degree days 3594 3879  
Cooling Degree Days 0 0  
Month to date cooling degree days 0 0  
Year to date cooling degree days 0 0  
Moisture  
Dew Point 25 °F    
Average Humidity 54    
Maximum Humidity 88    
Minimum Humidity 20    
Precipitation  
Precipitation 0.00 in 0.02 in 1.06 in (1911)
Month to date precipitation 0.04 0.44  
Year to date precipitation 0.73 1.02  
Snow  
Snow 0.00 in 0.20 in 3.00 in (1975)
Month to date snowfall 0.0 3.5  
Year to date snowfall 5.2 9.2  
Since 1 July snowfall 13.7 15.7  
Snow Depth 0.00 in    
Sea Level Pressure  
Sea Level Pressure 29.76 in    
Wind  
Wind Speed 9 mph (SSE)    
Max Wind Speed 21 mph    
Max Gust Speed 26 mph    
Visibility 9 miles    
Events      
T = Trace of Precipitation, MM = Missing Value Source: NWS Daily Summary

Daily Weather History Graph

Daily Weather History Graph

Search for Another Location

Airport:

Trip Planner

Search our weather history database for the weather conditions in past years. The results will help you decide how hot, cold, wet, or windy it might be!

Date:

Astronomy

Feb. 17, 2013 Rise Set
Actual Time 7:19 AM CST 6:09 PM CST
Civil Twilight 6:52 AM CST 6:37 PM CST
Nautical Twilight 6:21 AM CST 7:08 PM CST
Astronomical Twilight 5:49 AM CST 7:39 PM CST
Moon 11:15 AM CST (2/17) 1:04 AM CST (2/17)
Length of Visible Light 11h 44m
Length of Day
10h 49m
Waxing Crescent, 49% of the Moon is Illuminated
Feb 17
Waxing Crescent
Feb 17
First Quarter
Feb 25
Full
Mar 4
Last Quarter
Mar 11
New

Hourly Weather History & Observations

Time (CST) Temp. Windchill Dew Point Humidity Pressure Visibility Wind Dir Wind Speed Gust Speed Precip Events Conditions
12:55 AM 28.9 °F - 21.0 °F 72% 29.98 in 10.0 mi Calm Calm - N/A   Clear
1:55 AM 25.0 °F - 19.0 °F 78% 29.98 in 10.0 mi Calm Calm - N/A   Clear
2:55 AM 23.0 °F - 19.0 °F 85% 29.98 in 10.0 mi Calm Calm - N/A   Clear
3:55 AM 21.0 °F - 17.1 °F 85% 29.95 in 9.0 mi Calm Calm - N/A   Clear
4:55 AM 23.0 °F - 19.0 °F 85% 29.94 in 8.0 mi Calm Calm - N/A   Clear
5:55 AM 23.0 °F 17.0 °F 19.0 °F 85% 29.94 in 8.0 mi SSE 4.6 mph - N/A   Clear
6:55 AM 24.1 °F - 21.0 °F 88% 29.94 in 7.0 mi Calm Calm - N/A   Clear
7:55 AM 23.0 °F - 19.9 °F 88% 29.93 in 5.0 mi Calm Calm - N/A   Clear
8:55 AM 30.0 °F - 25.0 °F 82% 29.92 in 6.0 mi Calm Calm - N/A   Haze
9:55 AM 41.0 °F - 30.0 °F 65% 29.89 in 8.0 mi Calm Calm - N/A   Clear
10:55 AM 50.0 °F - 30.0 °F 46% 29.85 in 10.0 mi ESE 3.5 mph - N/A   Clear
11:55 AM 57.0 °F - 28.0 °F 33% 29.82 in 10.0 mi South 9.2 mph - N/A   Clear
12:55 PM 62.1 °F - 28.0 °F 28% 29.76 in 10.0 mi South 12.7 mph 20.7 mph N/A   Clear
1:55 PM 61.0 °F - 28.0 °F 29% 29.72 in 10.0 mi South 19.6 mph - N/A   Clear
2:55 PM 64.0 °F - 28.0 °F 26% 29.67 in 10.0 mi South 17.3 mph - N/A   Clear
3:55 PM 66.9 °F - 25.0 °F 21% 29.64 in 10.0 mi South 18.4 mph 24.2 mph N/A   Clear
4:55 PM 64.0 °F - 25.0 °F 23% 29.63 in 10.0 mi South 13.8 mph - N/A   Clear
5:55 PM 59.0 °F - 27.0 °F 29% 29.61 in 10.0 mi SSE 13.8 mph - N/A   Clear
6:55 PM 57.0 °F - 27.0 °F 32% 29.60 in 10.0 mi SSE 16.1 mph - N/A   Clear
7:55 PM 55.0 °F - 28.9 °F 37% 29.59 in 10.0 mi South 17.3 mph 24.2 mph N/A   Clear
8:55 PM 53.1 °F - 28.9 °F 40% 29.57 in 10.0 mi South 17.3 mph - N/A   Clear
9:55 PM 53.1 °F - 28.0 °F 38% 29.55 in 10.0 mi South 18.4 mph - N/A   Clear
10:55 PM 51.1 °F - 28.0 °F 41% 29.54 in 10.0 mi South 15.0 mph - N/A   Clear
11:55 PM 48.9 °F - 28.0 °F 44% 29.49 in 10.0 mi South 13.8 mph - N/A   Clear